Overview Statistics Trail Chart Weather Telemetry Raw packets
 

This is the latest recevied weather packets stored in our database for station/object KD7CTY. If no packets are shown the sender has not sent any weather packets the latest 10 day(s).

<< 106 107 108 109 110 111 112 >>
Time Temp. Humidity Pressure Rain* Wind** Luminosity Snow
1787799615 20.56° C 57% 1014.3 hPa 0 mm - 3 W/m² -
1787799308 21.11° C 57% 1014.2 hPa 0 mm - 4 W/m² -
1787799007 21.11° C 57% 1014.2 hPa 0 mm - 7 W/m² -
1787798710 21.67° C 56% 1014.2 hPa 0 mm - 10 W/m² -
1787798401 21.67° C 55% 1014.1 hPa 0 mm - 12 W/m² -
1787798096 22.22° C 53% 1014.1 hPa 0 mm - 16 W/m² -
1787797794 22.78° C 53% 1014.1 hPa 0 mm - 16 W/m² -
1787797489 22.22° C 53% 1014.1 hPa 0 mm - 17 W/m² -
1787797185 22.22° C 53% 1014.2 hPa 0 mm - 22 W/m² -
1787796880 22.22° C 54% 1014.1 hPa 0 mm - 19 W/m² -
1787796580 22.78° C 54% 1014.1 hPa 0 mm - 26 W/m² -
1787796276 22.78° C 53% 1014.2 hPa 0 mm - 34 W/m² -
1787795973 23.33° C 53% 1014.2 hPa 0 mm - 33 W/m² -
1787795668 23.33° C 54% 1014.2 hPa 0 mm - 36 W/m² -
1787795364 23.33° C 55% 1014.3 hPa 0 mm - 35 W/m² -
1787795062 23.89° C 55% 1014.4 hPa 0 mm - 38 W/m² -
1787794757 23.89° C 54% 1014.4 hPa 0 mm - 39 W/m² -
1787794454 23.89° C 53% 1014.3 hPa 0 mm - 127 W/m² -
1787794148 23.89° C 53% 1014.2 hPa 0 mm - 161 W/m² -
1787793845 23.89° C 53% 1014 hPa 0 mm - 180 W/m² -
1787793540 24.44° C 53% 1014.2 hPa 0 mm - 196 W/m² -
1787793239 24.44° C 53% 1014.4 hPa 0 mm - 206 W/m² -
1787792934 24.44° C 53% 1014.3 hPa 0 mm - 218 W/m² -
1787792630 25° C 51% 1014.5 hPa 0 mm - 249 W/m² -
1787792327 25.56° C 50% 1014.5 hPa 0 mm - 236 W/m² -

* Rain latest hour (hover to see other rain measurements)
** Current wind speed in m/s (hover to see current wind gust speed)